[[{"header":{"parameterUnit":"m.s-1","parameterCategory":1,"la1":30.2991,"la2":30.254,"lo1":-89.0895,"lo2":-89.0444,"dy":0.0017,"dx":0.0017,"nx":28,"ny":28,"refTime":"2025-04-11T09:00:00:Z","depth":0,"parameterNumber":2,"parameterNumberName":"U-component_of_WINDS"},"data":[0,0,0,0,0,0,0,0,0,0,0,0,0,0,0,0,0,0,0,0,0,0,0,0,0,0,0,0,0,0,0,0,0,0,0,0,0,0,0,0,0,0,0,0,0,0,0,0,0,0,0,0,0,0,0,0,0,0,0.266,0.266,0,0.2663,0.2663,0.2663,0.2692,0.2693,0.2694,0.2694,0.2694,0.2694,0.2693,0,0,0,0,0,0,0,0,0,0,0,0,0,0.268,0.268,0.266,0.266,0.266,0.2663,0.2663,0.2663,0.2692,0.2693,0.2694,0.2695,0.2694,0.2694,0.2693,0,0,0,0,0,0,0,0,0,0,0,0,0,0.2676,0.268,0.266,0.2675,0.2677,0.2663,0.2663,0.2663,0.2692,0.2693,0.2694,0.2695,0.2695,0.2694,0.2693,0.2663,0,0,0.2689,0.2689,0,0,0,0,0,0,0,0,0.2676,0.2675,0.2673,0.2674,0.2676,0.2678,0.267,0.2663,0.2692,0.2686,0.2694,0.2696,0.2688,0.2687,0.2685,0.2663,0.2663,0.2689,0.2689,0.2688,0.2688,0,0,0,0,0,0,0,0.2676,0.2675,0.2661,0.2673,0.2675,0.2682,0.2682,0.2668,0.268,0.2687,0.2689,0.2689,0.2689,0.2686,0.2686,0.2663,0.2689,0.2688,0.2688,0.2687,0.2618,0.2617,0,0,0,0,0,0,0.2675,0.2675,0.2661,0.2661,0.2679,0.268,0.2681,0.2676,0.2681,0.2683,0.2688,0.269,0.2688,0.2687,0.2686,0.2651,0.2688,0.2687,0.2687,0.2619,0.2618,0.2616,0,0,0,0,0,0,0.2675,0.2673,0.2661,0.2669,0.2668,0.2679,0.2673,0.2676,0.2673,0.2682,0.2684,0.2683,0.2688,0.2687,0.2669,0.2652,0.2687,0.2686,0.2621,0.2619,0.2617,0.2583,0,0,0,0,0,0,0.2676,0.2673,0.2662,0.2668,0.2667,0.2644,0.2672,0.2675,0.2672,0.2675,0.2678,0.2679,0.2689,0.267,0.2668,0.2651,0.2685,0.2622,0.262,0.2618,0.2585,0.258,0.2575,0,0,0,0,0,0.2676,0.2652,0.2662,0.266,0.2654,0.2643,0.2643,0.2655,0.267,0.2659,0.2665,0.2679,0.2655,0.2668,0.2666,0.2648,0.2623,0.262,0.2618,0.2588,0.2581,0.2575,0,0,0,0,0,0,0.2642,0.2653,0.2664,0.2641,0.2641,0.2648,0.2635,0.2648,0.2643,0.2646,0.2661,0.2662,0.2641,0.2643,0.2658,0.262,0.2642,0.2638,0.2619,0.2613,0.2608,0.2607,0.2684,0,0,0,0,0,0.2632,0.2623,0.2633,0.2612,0.2612,0.2623,0.2619,0.2629,0.263,0.2629,0.2634,0.2633,0.2625,0.262,0.2613,0.2587,0.2587,0.2573,0.2568,0.2564,0.256,0.2547,0.254,0.2608,0.2608,0.2608,0,0,0.2611,0.2616,0.2609,0.2605,0.2607,0.2596,0.2623,0.2611,0.2603,0.2627,0.261,0.2614,0.2614,0.2592,0.2582,0.2593,0.2543,0.2561,0.2557,0.2556,0.2543,0.2537,0.2531,0.2606,0.2606,0.2606,0,0,0.2567,0.257,0.2553,0.2554,0.2557,0.2565,0.2561,0.2567,0.257,0.2554,0.2571,0.2563,0.2549,0.2549,0.2547,0.2505,0.2518,0.2502,0.2475,0.2461,0.2456,0.2451,0.2436,0.243,0.2499,0.2499,0.2499,0,0.254,0.2526,0.2542,0.2529,0.2527,0.255,0.2532,0.2533,0.2532,0.253,0.2542,0.2526,0.2528,0.2506,0.2496,0.2494,0.2489,0.2501,0.2456,0.2451,0.2447,0.2432,0.2426,0.2497,0.2497,0.2497,0.2498,0,0.2492,0.2482,0.2468,0.2468,0.2465,0.2449,0.2463,0.2457,0.2468,0.2475,0.2458,0.2462,0.2457,0.2453,0.2462,0.2432,0.2438,0.2453,0.2474,0.2438,0.2425,0.2419,0.2494,0.2495,0.2495,0.2496,0,0,0.2424,0.2435,0.2429,0.243,0.2435,0.2428,0.2414,0.241,0.2404,0.2404,0.2392,0.2381,0.2395,0.2393,0.2404,0.2392,0.2358,0.2408,0.2408,0.2398,0.2324,0.2311,0.2304,0.2367,0.2366,0.2366,0.2323,0,0.2381,0.2358,0.2373,0.2347,0.2338,0.2361,0.2349,0.2351,0.2358,0.2351,0.2358,0.2349,0.2369,0.2368,0.2358,0.2364,0.2343,0.2368,0.2356,0.2355,0.2353,0.2297,0.2284,0.2244,0.2318,0.2317,0.2317,0,0.2326,0.2325,0.2299,0.2307,0.2303,0.2292,0.229,0.2284,0.2286,0.2292,0.2291,0.2304,0.2291,0.2314,0.2296,0.2312,0.2309,0.2311,0.231,0.2308,0.2332,0.2292,0.2231,0.2225,0.2308,0.2309,0.231,0,0.2278,0.2269,0.2253,0.2253,0.2262,0.2254,0.2257,0.2261,0.2258,0.2256,0.2254,0.225,0.2248,0.2245,0.2257,0.2273,0.2237,0.2261,0.2241,0.224,0.223,0.223,0.2166,0.2231,0.2231,0.2231,0.2231,0,0.2227,0.2209,0.2231,0.2221,0.2202,0.222,0.2201,0.2207,0.2211,0.2202,0.2222,0.2213,0.2231,0.2223,0.2233,0.2216,0.2216,0.2219,0.2222,0.2216,0.2216,0.2213,0.2215,0.2229,0.223,0.223,0.223,0,0.2168,0.2182,0.2166,0.2176,0.2179,0.2165,0.2174,0.2164,0.2174,0.2162,0.216,0.2173,0.2166,0.2179,0.2173,0.218,0.2156,0.2164,0.2155,0.2156,0.2135,0.2136,0.2065,0.2057,0.2128,0.2127,0.2127,0,0.2134,0.2121,0.2131,0.2127,0.213,0.2122,0.212,0.2138,0.2134,0.2137,0.2127,0.2122,0.2118,0.2105,0.2114,0.211,0.2117,0.2093,0.2116,0.2111,0.2115,0.2115,0.2113,0.2087,0.2086,0.2085,0.2085,0,0.207,0.2078,0.2074,0.2073,0.2069,0.2069,0.2069,0.2065,0.2084,0.2079,0.2072,0.2069,0.2064,0.2058,0.2057,0.206,0.2075,0.2078,0.2072,0.2066,0.2061,0.2062,0.214,0.2078,0.2079,0.2079,0.208,0.208,0.2022,0.2012,0.2018,0.2013,0.2016,0.2016,0.2008,0.2017,0.2012,0.201,0.2021,0.2011,0.2016,0.2015,0.2017,0.201,0.202,0.2013,0.2011,0.2008,0.2005,0.2064,0.201,0.201,0.201,0.201,0.201,0,0.1958,0.1964,0.1959,0.196,0.1956,0.1973,0.1976,0.1971,0.1963,0.1966,0.1963,0.1955,0.195,0.196,0.1956,0.1949,0.1955,0.1947,0.1947,0.1947,0.1996,0.2,0.1941,0.1941,0.1941,0.1941,0.1941,0.1941,0.1925,0.1909,0.1918,0.1904,0.191,0.1901,0.1901,0.1902,0.1905,0.1896,0.1892,0.1899,0.1905,0.1902,0.1898,0.1901,0.1898,0.1887,0.1892,0.1937,0.1944,0.195,0.1954,0.1887,0.1887,0.1844,0.1843,0.1843]},{"header":{"parameterUnit":"m.s-1","parameterCategory":1,"la1":30.2991,"la2":30.254,"lo1":-89.0895,"lo2":-89.0444,"dy":0.0017,"dx":0.0017,"nx":28,"ny":28,"refTime":"2025-04-11T09:00:00:Z","depth":0,"parameterNumber":3,"parameterNumberName":"V-component_of_WINDS"},"data":[0,0,0,0,0,0,0,0,0,0,0,0,0,0,0,0,0,0,0,0,0,0,0,0,0,0,0,0,0,0,0,0,0,0,0,0,0,0,0,0,0,0,0,0,0,0,0,0,0,0,0,0,0,0,0,0,0,0,-5.7213,-5.7214,0,-5.735,-5.7352,-5.7354,-5.7261,-5.7256,-5.7252,-5.7248,-5.7388,-5.7396,-5.7403,0,0,0,0,0,0,0,0,0,0,0,0,0,-5.6868,-5.6875,-5.7212,-5.7214,-5.7216,-5.735,-5.7352,-5.7354,-5.7261,-5.7256,-5.7251,-5.7246,-5.7386,-5.7395,-5.7404,0,0,0,0,0,0,0,0,0,0,0,0,0,-5.7013,-5.6877,-5.7212,-5.7186,-5.7185,-5.735,-5.7352,-5.7354,-5.7262,-5.7256,-5.725,-5.7244,-5.7383,-5.7394,-5.7405,-5.7603,0,0,-5.744,-5.7445,0,0,0,0,0,0,0,0,-5.7005,-5.7026,-5.7188,-5.7188,-5.7187,-5.7282,-5.7282,-5.7438,-5.7264,-5.7233,-5.7248,-5.7241,-5.7358,-5.7371,-5.7411,-5.761,-5.7616,-5.7441,-5.7448,-5.7453,-5.7457,0,0,0,0,0,0,0,-5.6995,-5.7019,-5.7267,-5.7191,-5.719,-5.7167,-5.7181,-5.7311,-5.7329,-5.7235,-5.7229,-5.7246,-5.7356,-5.74,-5.7413,-5.7618,-5.7441,-5.7451,-5.7458,-5.7463,-5.7987,-5.7993,0,0,0,0,0,0,-5.6987,-5.7011,-5.7263,-5.7271,-5.7079,-5.7178,-5.7193,-5.7258,-5.7328,-5.7332,-5.7252,-5.7242,-5.7383,-5.74,-5.7418,-5.7655,-5.7453,-5.7464,-5.7471,-5.798,-5.7988,-5.7996,0,0,0,0,0,0,-5.698,-5.7011,-5.7257,-5.714,-5.7169,-5.7191,-5.7264,-5.7264,-5.7307,-5.734,-5.7343,-5.7293,-5.7379,-5.7402,-5.7558,-5.7659,-5.7469,-5.748,-5.7972,-5.7982,-5.7992,-5.8132,0,0,0,0,0,0,-5.6971,-5.7009,-5.7084,-5.7142,-5.7176,-5.7396,-5.727,-5.7271,-5.7328,-5.7316,-5.738,-5.7384,-5.7376,-5.7541,-5.757,-5.7671,-5.7489,-5.7963,-5.7976,-5.7989,-5.8118,-5.8146,-5.8169,0,0,0,0,0,-5.6959,-5.7118,-5.7089,-5.712,-5.7271,-5.7402,-5.7421,-5.7409,-5.7336,-5.7413,-5.7433,-5.7382,-5.7643,-5.7558,-5.7589,-5.7696,-5.7956,-5.7972,-5.7988,-5.8107,-5.814,-5.8168,0,0,0,0,0,0,-5.7071,-5.7125,-5.7093,-5.7276,-5.7335,-5.7386,-5.7482,-5.7445,-5.7525,-5.7511,-5.7491,-5.7507,-5.7671,-5.7698,-5.7603,-5.7891,-5.7788,-5.7811,-5.7868,-5.79,-5.7925,-5.7916,-5.7498,0,0,0,0,0,-5.7117,-5.7219,-5.726,-5.7417,-5.7448,-5.746,-5.7517,-5.7502,-5.7563,-5.7587,-5.7619,-5.768,-5.7775,-5.7839,-5.7928,-5.8121,-5.8134,-5.8209,-5.8235,-5.8256,-5.8276,-5.8381,-5.8415,-5.8048,-5.8048,-5.8047,0,0,-5.7213,-5.7255,-5.732,-5.7441,-5.7485,-5.7591,-5.7482,-5.7598,-5.7677,-5.7604,-5.7755,-5.7781,-5.7846,-5.8022,-5.8101,-5.8051,-5.838,-5.8276,-5.8292,-5.8301,-5.8401,-5.8436,-5.8467,-5.8058,-5.8056,-5.8055,0,0,-5.7443,-5.7484,-5.762,-5.7667,-5.7735,-5.7742,-5.7775,-5.7832,-5.7847,-5.7997,-5.7945,-5.8037,-5.8202,-5.8252,-5.8299,-5.8547,-5.8503,-5.8577,-5.8711,-5.8813,-5.8842,-5.8868,-5.8958,-5.899,-5.8596,-5.8597,-5.8597,0,-5.7554,-5.7712,-5.7695,-5.7816,-5.7871,-5.781,-5.7948,-5.7993,-5.8088,-5.8127,-5.8068,-5.8275,-5.8314,-5.8502,-5.8562,-5.8602,-5.8639,-5.857,-5.8839,-5.8865,-5.8889,-5.8974,-5.9008,-5.8605,-5.8604,-5.8604,-5.8603,0,-5.7845,-5.7956,-5.8057,-5.8151,-5.8217,-5.8345,-5.8348,-5.8416,-5.8396,-5.8409,-5.8563,-5.8609,-5.8707,-5.875,-5.873,-5.8935,-5.8901,-5.8842,-5.8738,-5.8933,-5.9013,-5.9045,-5.8618,-5.8615,-5.8612,-5.861,0,0,-5.8151,-5.8234,-5.8271,-5.8313,-5.8384,-5.8469,-5.8595,-5.8692,-5.8752,-5.8818,-5.8924,-5.9064,-5.901,-5.9063,-5.9049,-5.9138,-5.9334,-5.9068,-5.9069,-5.9117,-5.9563,-5.9609,-5.9648,-5.9304,-5.9311,-5.9315,-5.9558,0,-5.8386,-5.8607,-5.8595,-5.8802,-5.8904,-5.8848,-5.8957,-5.9013,-5.9028,-5.9117,-5.9132,-5.9234,-5.9153,-5.9185,-5.9271,-5.9292,-5.9424,-5.9274,-5.9403,-5.9408,-5.9391,-5.9689,-5.9738,-5.9966,-5.9589,-5.9595,-5.9599,0,-5.8691,-5.8769,-5.8986,-5.9043,-5.9085,-5.9184,-5.9272,-5.9357,-5.9419,-5.9423,-5.9483,-5.9454,-5.9581,-5.9472,-5.9647,-5.9546,-5.9598,-5.9616,-5.9624,-5.9638,-5.9517,-5.9712,-6.0037,-6.0072,-5.9647,-5.9644,-5.964,0,-5.8894,-5.9053,-5.9204,-5.9242,-5.9311,-5.9382,-5.9414,-5.9469,-5.9528,-5.9604,-5.9643,-5.9733,-5.9783,-5.9853,-5.9848,-5.9769,-6.0027,-5.9917,-6.0035,-6.0035,-6.0093,-6.009,-6.0433,-6.0124,-6.0123,-6.0122,-6.0122,0,-5.9159,-5.9295,-5.9297,-5.939,-5.954,-5.9525,-5.9674,-5.9698,-5.9748,-5.9844,-5.98,-5.9891,-5.9879,-5.9971,-5.9968,-6.0115,-6.0137,-6.0145,-6.0143,-6.015,-6.015,-6.0185,-6.017,-6.0131,-6.0129,-6.0128,-6.0126,0,-5.9413,-5.942,-5.9581,-5.9633,-5.9649,-5.9758,-5.9802,-5.9891,-5.9901,-6.0024,-6.0052,-6.007,-6.0176,-6.0178,-6.0299,-6.0297,-6.0476,-6.0455,-6.0456,-6.0453,-6.0571,-6.0561,-6.0951,-6.1002,-6.0657,-6.0661,-6.0663,0,-5.9583,-5.9686,-5.975,-5.9812,-5.9848,-5.9948,-6.0009,-5.9997,-6.0061,-6.0139,-6.0219,-6.032,-6.0401,-6.0573,-6.0596,-6.0689,-6.0671,-6.0801,-6.0685,-6.0689,-6.0675,-6.067,-6.0681,-6.0825,-6.0829,-6.0832,-6.0834,0,-5.9885,-5.9883,-5.9971,-6.0063,-6.0136,-6.0206,-6.0272,-6.0325,-6.032,-6.0395,-6.0503,-6.0566,-6.069,-6.0792,-6.0882,-6.0914,-6.0875,-6.087,-6.0903,-6.0913,-6.091,-6.0915,-6.0521,-6.0862,-6.0859,-6.0857,-6.0856,-6.0855,-6.0103,-6.0192,-6.0252,-6.0352,-6.04,-6.0462,-6.0548,-6.057,-6.066,-6.0761,-6.0748,-6.0869,-6.0927,-6.1044,-6.1083,-6.1177,-6.1132,-6.1179,-6.1191,-6.1203,-6.1217,-6.0893,-6.1193,-6.1193,-6.1192,-6.1191,-6.1191,0,-6.0404,-6.0439,-6.0532,-6.0625,-6.0704,-6.0659,-6.0729,-6.0799,-6.0906,-6.0964,-6.1045,-6.117,-6.1268,-6.1299,-6.1394,-6.1464,-6.1448,-6.149,-6.1485,-6.1494,-6.1251,-6.1215,-6.1501,-6.1501,-6.1501,-6.1501,-6.1501,-6.1501,-6.057,-6.072,-6.0725,-6.0898,-6.0931,-6.105,-6.1094,-6.1151,-6.1198,-6.1339,-6.1421,-6.1441,-6.1488,-6.1587,-6.1675,-6.1681,-6.172,-6.1769,-6.1768,-6.1542,-6.1511,-6.1481,-6.1447,-6.1777,-6.1777,-6.2003,-6.2005,-6.2007]}]]